Time,TemperatureF,DewpointF,PressureIn,WindDirection,WindDirectionDegrees,WindSpeedMPH,WindSpeedGustMPH,Humidity,HourlyPrecipIn,Conditions,Clouds,dailyrainin,SolarRadiationWatts/m^2,SoftwareType,DateUTC
2013-01-24 00:04:00,6.9,-2.4,30.45,North,355,10.0,12.0,65,0.00,,,0.00,0,Wunderground v.1.15,2013-01-24 06:04:00,
2013-01-24 00:10:00,6.8,-2.8,30.45,NW,315,10.0,11.0,64,0.00,,,0.00,0,Wunderground v.1.15,2013-01-24 06:10:00,
2013-01-24 00:16:00,6.7,-2.6,30.46,NW,323,10.0,13.0,65,0.00,,,0.00,0,Wunderground v.1.15,2013-01-24 06:16:00,
2013-01-24 00:21:00,6.5,-2.8,30.46,NNW,332,9.0,11.0,65,0.00,,,0.00,0,Wunderground v.1.15,2013-01-24 06:21:00,
2013-01-24 00:29:00,6.3,-3.0,30.46,NW,321,9.0,13.0,65,0.00,,,0.00,0,Wunderground v.1.15,2013-01-24 06:29:00,
2013-01-24 00:35:00,6.1,-3.2,30.47,NNW,332,8.0,8.0,65,0.00,,,0.00,0,Wunderground v.1.15,2013-01-24 06:35:00,
2013-01-24 00:41:00,6.0,-3.3,30.47,NW,321,8.0,11.0,65,0.00,,,0.00,0,Wunderground v.1.15,2013-01-24 06:41:00,
2013-01-24 00:46:00,5.9,-3.3,30.47,NW,323,9.0,15.0,65,0.00,,,0.00,0,Wunderground v.1.15,2013-01-24 06:46:00,
2013-01-24 00:51:00,5.9,-3.7,30.47,NW,315,10.0,13.0,64,0.00,,,0.00,0,Wunderground v.1.15,2013-01-24 06:51:00,
2013-01-24 00:59:00,5.8,-3.4,30.47,North,355,11.0,13.0,65,0.00,,,0.00,0,Wunderground v.1.15,2013-01-24 06:59:00,
2013-01-24 01:04:00,5.8,-3.4,30.49,NNW,341,9.0,11.0,65,0.00,,,0.00,0,Wunderground v.1.15,2013-01-24 07:04:00,
2013-01-24 01:10:00,5.6,-3.3,30.49,NNW,332,8.0,8.0,66,0.00,,,0.00,0,Wunderground v.1.15,2013-01-24 07:10:00,
2013-01-24 01:16:00,5.5,-3.4,30.50,NNW,331,9.0,12.0,66,0.00,,,0.00,0,Wunderground v.1.15,2013-01-24 07:16:00,
2013-01-24 01:24:00,5.3,-3.6,30.50,NNW,329,9.0,10.0,66,0.00,,,0.00,0,Wunderground v.1.15,2013-01-24 07:24:00,
2013-01-24 01:30:00,5.2,-3.7,30.51,NNW,341,9.0,9.0,66,0.00,,,0.00,0,Wunderground v.1.15,2013-01-24 07:30:00,
2013-01-24 01:36:00,5.1,-3.8,30.51,NW,311,8.0,11.0,66,0.00,,,0.00,0,Wunderground v.1.15,2013-01-24 07:36:00,
2013-01-24 01:41:00,5.0,-3.9,30.51,North,350,9.0,12.0,66,0.00,,,0.00,0,Wunderground v.1.15,2013-01-24 07:41:00,
2013-01-24 01:47:00,4.8,-3.8,30.52,NNW,330,9.0,12.0,67,0.00,,,0.00,0,Wunderground v.1.15,2013-01-24 07:47:00,
2013-01-24 01:54:00,4.7,-3.9,30.52,NW,304,8.0,9.0,67,0.00,,,0.00,0,Wunderground v.1.15,2013-01-24 07:54:00,
2013-01-24 02:00:00,4.6,-4.0,30.53,NW,316,8.0,8.0,67,0.00,,,0.00,0,Wunderground v.1.15,2013-01-24 08:00:00,
2013-01-24 02:06:00,4.4,-4.1,30.53,NW,322,9.0,13.0,67,0.00,,,0.00,0,Wunderground v.1.15,2013-01-24 08:06:00,
2013-01-24 02:11:00,4.4,-4.1,30.53,NNW,336,8.0,8.0,67,0.00,,,0.00,0,Wunderground v.1.15,2013-01-24 08:11:00,
2013-01-24 02:16:00,4.3,-4.2,30.53,NNW,331,7.0,8.0,67,0.00,,,0.00,0,Wunderground v.1.15,2013-01-24 08:16:00,
2013-01-24 02:24:00,4.2,-4.3,30.53,NNW,327,6.0,7.0,67,0.00,,,0.00,0,Wunderground v.1.15,2013-01-24 08:24:00,
2013-01-24 02:29:00,4.2,-4.0,30.53,NNW,332,7.0,9.0,68,0.00,,,0.00,0,Wunderground v.1.15,2013-01-24 08:29:00,
2013-01-24 02:35:00,4.1,-4.4,30.54,NW,307,8.0,13.0,67,0.00,,,0.00,0,Wunderground v.1.15,2013-01-24 08:35:00,
2013-01-24 02:40:00,4.1,-4.4,30.54,NW,323,8.0,8.0,67,0.00,,,0.00,0,Wunderground v.1.15,2013-01-24 08:40:00,
2013-01-24 02:45:00,4.0,-4.2,30.55,NW,317,8.0,8.0,68,0.00,,,0.00,0,Wunderground v.1.15,2013-01-24 08:45:00,
2013-01-24 02:51:00,3.8,-4.4,30.55,NNW,333,7.0,9.0,68,0.00,,,0.00,0,Wunderground v.1.15,2013-01-24 08:51:00,
2013-01-24 02:57:00,3.8,-4.4,30.55,NW,317,8.0,13.0,68,0.00,,,0.00,0,Wunderground v.1.15,2013-01-24 08:57:00,
2013-01-24 03:04:00,3.7,-4.5,30.56,NNW,348,9.0,9.0,68,0.00,,,0.00,0,Wunderground v.1.15,2013-01-24 09:04:00,
2013-01-24 03:09:00,3.6,-4.9,30.56,NNW,340,8.0,11.0,67,0.00,,,0.00,0,Wunderground v.1.15,2013-01-24 09:09:00,
2013-01-24 03:14:00,3.6,-4.6,30.56,NNW,327,9.0,10.0,68,0.00,,,0.00,0,Wunderground v.1.15,2013-01-24 09:14:00,
2013-01-24 03:20:00,3.5,-5.0,30.56,NNW,333,9.0,9.0,67,0.00,,,0.00,0,Wunderground v.1.15,2013-01-24 09:20:00,
2013-01-24 03:25:00,3.4,-4.8,30.56,NNW,344,8.0,10.0,68,0.00,,,0.00,0,Wunderground v.1.15,2013-01-24 09:25:00,
2013-01-24 03:31:00,3.3,-4.9,30.57,NNW,338,8.0,9.0,68,0.00,,,0.00,0,Wunderground v.1.15,2013-01-24 09:31:00,
2013-01-24 03:40:00,3.2,-5.0,30.57,NNW,335,9.0,10.0,68,0.00,,,0.00,0,Wunderground v.1.15,2013-01-24 09:40:00,
2013-01-24 03:45:00,3.1,-4.8,30.58,North,355,9.0,10.0,69,0.00,,,0.00,0,Wunderground v.1.15,2013-01-24 09:45:00,
2013-01-24 03:51:00,3.0,-4.9,30.58,NNW,338,8.0,8.0,69,0.00,,,0.00,0,Wunderground v.1.15,2013-01-24 09:51:00,
2013-01-24 03:56:00,2.9,-5.0,30.58,NNW,340,8.0,8.0,69,0.00,,,0.00,0,Wunderground v.1.15,2013-01-24 09:56:00,
2013-01-24 04:02:00,2.8,-5.1,30.58,NW,321,9.0,9.0,69,0.00,,,0.00,0,Wunderground v.1.15,2013-01-24 10:02:00,
2013-01-24 04:07:00,2.8,-4.8,30.58,NW,318,8.0,9.0,70,0.00,,,0.00,0,Wunderground v.1.15,2013-01-24 10:07:00,
2013-01-24 04:15:00,2.6,-5.0,30.58,NW,321,7.0,10.0,70,0.00,,,0.00,0,Wunderground v.1.15,2013-01-24 10:15:00,
2013-01-24 04:20:00,2.4,-5.2,30.59,NNW,337,7.0,8.0,70,0.00,,,0.00,0,Wunderground v.1.15,2013-01-24 10:20:00,
2013-01-24 04:26:00,2.3,-5.3,30.59,NNW,335,8.0,10.0,70,0.00,,,0.00,0,Wunderground v.1.15,2013-01-24 10:26:00,
2013-01-24 04:31:00,2.2,-5.4,30.60,NNW,338,9.0,12.0,70,0.00,,,0.00,0,Wunderground v.1.15,2013-01-24 10:31:00,
2013-01-24 04:37:00,2.1,-5.2,30.60,NW,316,9.0,12.0,71,0.00,,,0.00,0,Wunderground v.1.15,2013-01-24 10:37:00,
2013-01-24 04:45:00,2.1,-5.2,30.60,NNW,330,9.0,10.0,71,0.00,,,0.00,0,Wunderground v.1.15,2013-01-24 10:45:00,
2013-01-24 04:50:00,2.0,-5.2,30.61,NNW,328,8.0,8.0,71,0.00,,,0.00,0,Wunderground v.1.15,2013-01-24 10:50:00,
2013-01-24 04:55:00,2.0,-5.2,30.61,NW,326,7.0,11.0,71,0.00,,,0.00,0,Wunderground v.1.15,2013-01-24 10:55:00,
2013-01-24 05:01:00,2.0,-5.2,30.62,NW,310,8.0,8.0,71,0.00,,,0.00,0,Wunderground v.1.15,2013-01-24 11:01:00,
2013-01-24 05:09:00,1.9,-5.3,30.62,NW,309,8.0,10.0,71,0.00,,,0.00,0,Wunderground v.1.15,2013-01-24 11:09:00,
2013-01-24 05:14:00,1.8,-5.4,30.62,NW,324,7.0,8.0,71,0.00,,,0.00,0,Wunderground v.1.15,2013-01-24 11:14:00,
2013-01-24 05:20:00,1.7,-5.5,30.63,NNW,329,7.0,7.0,71,0.00,,,0.00,0,Wunderground v.1.15,2013-01-24 11:20:00,
2013-01-24 05:26:00,1.7,-5.5,30.63,NNW,327,8.0,8.0,71,0.00,,,0.00,0,Wunderground v.1.15,2013-01-24 11:26:00,
2013-01-24 05:31:00,1.6,-5.6,30.64,NNW,338,7.0,10.0,71,0.00,,,0.00,0,Wunderground v.1.15,2013-01-24 11:31:00,
2013-01-24 05:39:00,1.5,-5.7,30.64,NW,325,7.0,10.0,71,0.00,,,0.00,0,Wunderground v.1.15,2013-01-24 11:39:00,
2013-01-24 05:44:00,1.5,-5.4,30.64,NW,320,7.0,9.0,72,0.00,,,0.00,0,Wunderground v.1.15,2013-01-24 11:44:00,
2013-01-24 05:50:00,1.5,-5.4,30.65,NNW,338,7.0,7.0,72,0.00,,,0.00,0,Wunderground v.1.15,2013-01-24 11:50:00,
2013-01-24 05:55:00,1.4,-5.5,30.65,NNW,327,7.0,9.0,72,0.00,,,0.00,0,Wunderground v.1.15,2013-01-24 11:55:00,
2013-01-24 06:01:00,1.3,-5.6,30.65,NNW,344,6.0,9.0,72,0.00,,,0.00,0,Wunderground v.1.15,2013-01-24 12:01:00,
2013-01-24 06:06:00,1.2,-5.7,30.65,NNW,346,6.0,9.0,72,0.00,,,0.00,0,Wunderground v.1.15,2013-01-24 12:06:00,
2013-01-24 06:11:00,1.2,-5.7,30.65,NW,321,6.0,6.0,72,0.00,,,0.00,0,Wunderground v.1.15,2013-01-24 12:11:00,
2013-01-24 06:19:00,1.2,-5.7,30.65,NNW,331,6.0,8.0,72,0.00,,,0.00,0,Wunderground v.1.15,2013-01-24 12:19:00,
2013-01-24 06:24:00,1.2,-5.4,30.65,NNW,327,5.0,7.0,73,0.00,,,0.00,0,Wunderground v.1.15,2013-01-24 12:24:00,
2013-01-24 06:30:00,1.1,-5.8,30.65,NNW,346,5.0,5.0,72,0.00,,,0.00,0,Wunderground v.1.15,2013-01-24 12:30:00,
2013-01-24 06:36:00,1.0,-5.6,30.65,NNW,342,5.0,6.0,73,0.00,,,0.00,0,Wunderground v.1.15,2013-01-24 12:36:00,
2013-01-24 06:41:00,1.0,-5.6,30.65,NNW,346,6.0,10.0,73,0.00,,,0.00,0,Wunderground v.1.15,2013-01-24 12:41:00,
2013-01-24 06:46:00,1.0,-5.6,30.66,NW,315,6.0,10.0,73,0.00,,,0.00,0,Wunderground v.1.15,2013-01-24 12:46:00,
2013-01-24 06:51:00,1.0,-5.6,30.66,NW,308,4.0,5.0,73,0.00,,,0.00,0,Wunderground v.1.15,2013-01-24 12:51:00,
2013-01-24 06:59:00,0.9,-5.7,30.66,NNW,327,4.0,5.0,73,0.00,,,0.00,0,Wunderground v.1.15,2013-01-24 12:59:00,
2013-01-24 07:04:00,0.9,-5.7,30.66,NNW,335,4.0,5.0,73,0.00,,,0.00,0,Wunderground v.1.15,2013-01-24 13:04:00,
2013-01-24 07:10:00,0.9,-5.5,30.66,NW,326,4.0,4.0,74,0.00,,,0.00,5,Wunderground v.1.15,2013-01-24 13:10:00,
2013-01-24 07:15:00,0.8,-5.8,30.66,NNW,327,4.0,5.0,73,0.00,,,0.00,0,Wunderground v.1.15,2013-01-24 13:15:00,
2013-01-24 07:21:00,0.7,-5.9,30.66,WNW,302,4.0,5.0,73,0.00,,,0.00,0,Wunderground v.1.15,2013-01-24 13:21:00,
2013-01-24 07:29:00,0.8,-5.5,30.66,NW,319,4.0,5.0,74,0.00,,,0.00,9,Wunderground v.1.15,2013-01-24 13:29:00,
2013-01-24 07:34:00,0.8,-5.5,30.66,NNW,336,4.0,5.0,74,0.00,,,0.00,18,Wunderground v.1.15,2013-01-24 13:34:00,
2013-01-24 07:40:00,0.8,-5.5,30.66,NNW,330,4.0,5.0,74,0.00,,,0.00,25,Wunderground v.1.15,2013-01-24 13:40:00,
2013-01-24 07:45:00,0.7,-5.6,30.68,NNW,331,5.0,5.0,74,0.00,,,0.00,32,Wunderground v.1.15,2013-01-24 13:45:00,
2013-01-24 07:50:00,0.8,-5.5,30.68,North,355,5.0,6.0,74,0.00,,,0.00,37,Wunderground v.1.15,2013-01-24 13:50:00,
2013-01-24 07:56:00,0.9,-5.5,30.68,NNW,348,5.0,6.0,74,0.00,,,0.00,44,Wunderground v.1.15,2013-01-24 13:56:00,
2013-01-24 08:01:00,1.0,-5.4,30.68,North,360,4.0,6.0,74,0.00,,,0.00,51,Wunderground v.1.15,2013-01-24 14:01:00,
2013-01-24 08:09:00,1.2,-5.2,30.68,NNW,346,4.0,6.0,74,0.00,,,0.00,67,Wunderground v.1.15,2013-01-24 14:09:00,
2013-01-24 08:14:00,1.3,-5.3,30.68,NW,326,4.0,4.0,73,0.00,,,0.00,74,Wunderground v.1.15,2013-01-24 14:14:00,
2013-01-24 08:19:00,1.4,-5.3,30.69,North,5,4.0,6.0,73,0.00,,,0.00,81,Wunderground v.1.15,2013-01-24 14:19:00,
2013-01-24 08:25:00,1.6,-5.1,30.69,NNW,342,4.0,7.0,73,0.00,,,0.00,90,Wunderground v.1.15,2013-01-24 14:25:00,
2013-01-24 08:30:00,1.8,-4.9,30.70,NNW,347,5.0,8.0,73,0.00,,,0.00,95,Wunderground v.1.15,2013-01-24 14:30:00,
2013-01-24 08:36:00,1.9,-5.1,30.70,NW,324,5.0,8.0,72,0.00,,,0.00,104,Wunderground v.1.15,2013-01-24 14:36:00,
2013-01-24 08:41:00,2.0,-5.0,30.70,North,5,5.0,6.0,72,0.00,,,0.00,114,Wunderground v.1.15,2013-01-24 14:41:00,
2013-01-24 08:50:00,2.3,-5.0,30.71,North,5,5.0,6.0,71,0.00,,,0.00,137,Wunderground v.1.15,2013-01-24 14:50:00,
2013-01-24 08:56:00,2.5,-4.8,30.71,NNW,337,5.0,7.0,71,0.00,,,0.00,149,Wunderground v.1.15,2013-01-24 14:56:00,
2013-01-24 09:01:00,2.7,-4.6,30.71,NNW,346,5.0,7.0,71,0.00,,,0.00,155,Wunderground v.1.15,2013-01-24 15:01:00,
2013-01-24 09:10:00,3.2,-4.1,30.71,NNW,342,6.0,6.0,71,0.00,,,0.00,162,Wunderground v.1.15,2013-01-24 15:10:00,
2013-01-24 09:16:00,3.6,-4.0,30.71,NNW,338,5.0,7.0,70,0.00,,,0.00,167,Wunderground v.1.15,2013-01-24 15:16:00,
2013-01-24 09:24:00,4.0,-3.9,30.71,NNW,341,5.0,7.0,69,0.00,,,0.00,176,Wunderground v.1.15,2013-01-24 15:24:00,
2013-01-24 09:30:00,4.1,-3.8,30.71,NNE,30,6.0,6.0,69,0.00,,,0.00,190,Wunderground v.1.15,2013-01-24 15:30:00,
2013-01-24 09:36:00,4.4,-3.5,30.71,NNE,31,6.0,7.0,69,0.00,,,0.00,221,Wunderground v.1.15,2013-01-24 15:36:00,
2013-01-24 09:45:00,4.9,-3.1,30.71,NNW,348,3.0,5.0,69,0.00,,,0.00,255,Wunderground v.1.15,2013-01-24 15:45:00,
2013-01-24 09:51:00,4.9,-3.4,30.71,North,5,4.0,7.0,68,0.00,,,0.00,262,Wunderground v.1.15,2013-01-24 15:51:00,
2013-01-24 09:56:00,5.0,-3.0,30.71,NW,317,5.0,7.0,69,0.00,,,0.00,267,Wunderground v.1.15,2013-01-24 15:56:00,
2013-01-24 10:01:00,5.1,-2.9,30.71,NNW,347,6.0,8.0,69,0.00,,,0.00,295,Wunderground v.1.15,2013-01-24 16:01:00,
2013-01-24 10:07:00,5.4,-2.6,30.71,NNW,339,6.0,8.0,69,0.00,,,0.00,343,Wunderground v.1.15,2013-01-24 16:07:00,
2013-01-24 10:14:00,5.6,-2.7,30.71,NW,313,6.0,6.0,68,0.00,,,0.00,343,Wunderground v.1.15,2013-01-24 16:14:00,
2013-01-24 10:20:00,6.0,-2.3,30.71,North,360,5.0,5.0,68,0.00,,,0.00,348,Wunderground v.1.15,2013-01-24 16:20:00,
2013-01-24 10:26:00,6.5,-1.8,30.71,NNW,345,5.0,7.0,68,0.00,,,0.00,322,Wunderground v.1.15,2013-01-24 16:26:00,
2013-01-24 10:31:00,6.5,-1.5,30.70,North,350,5.0,5.0,69,0.00,,,0.00,322,Wunderground v.1.15,2013-01-24 16:31:00,
2013-01-24 10:36:00,7.1,-1.2,30.70,NNE,22,5.0,6.0,68,0.00,,,0.00,323,Wunderground v.1.15,2013-01-24 16:36:00,
2013-01-24 10:42:00,7.5,-0.9,30.70,North,5,4.0,5.0,68,0.00,,,0.00,346,Wunderground v.1.15,2013-01-24 16:42:00,
2013-01-24 10:47:00,7.9,-0.8,30.70,NNE,15,4.0,5.0,67,0.00,,,0.00,332,Wunderground v.1.15,2013-01-24 16:47:00,
2013-01-24 10:55:00,8.2,-0.2,30.70,NNW,337,5.0,5.0,68,0.00,,,0.00,343,Wunderground v.1.15,2013-01-24 16:55:00,
2013-01-24 11:01:00,8.5,-0.2,30.69,NNW,342,5.0,5.0,67,0.00,,,0.00,332,Wunderground v.1.15,2013-01-24 17:01:00,
2013-01-24 11:06:00,8.7,0.6,30.69,NNW,332,3.0,5.0,69,0.00,,,0.00,334,Wunderground v.1.15,2013-01-24 17:06:00,
2013-01-24 11:14:00,9.0,0.6,30.69,NNW,346,4.0,5.0,68,0.00,,,0.00,334,Wunderground v.1.15,2013-01-24 17:14:00,
2013-01-24 11:20:00,9.4,1.0,30.69,NNW,346,3.0,3.0,68,0.00,,,0.00,334,Wunderground v.1.15,2013-01-24 17:20:00,
2013-01-24 11:26:00,9.5,1.1,30.69,NNW,329,2.0,4.0,68,0.00,,,0.00,345,Wunderground v.1.15,2013-01-24 17:26:00,
2013-01-24 11:31:00,9.8,1.0,30.68,North,355,3.0,5.0,67,0.00,,,0.00,374,Wunderground v.1.15,2013-01-24 17:31:00,
2013-01-24 11:36:00,10.1,1.3,30.68,North,355,3.0,5.0,67,0.00,,,0.00,380,Wunderground v.1.15,2013-01-24 17:36:00,
2013-01-24 11:44:00,10.5,1.7,30.68,North,355,3.0,5.0,67,0.00,,,0.00,338,Wunderground v.1.15,2013-01-24 17:44:00,
2013-01-24 11:49:00,10.6,1.8,30.68,North,355,3.0,3.0,67,0.00,,,0.00,343,Wunderground v.1.15,2013-01-24 17:49:00,
2013-01-24 11:55:00,10.7,1.9,30.68,NW,310,3.0,3.0,67,0.00,,,0.00,346,Wunderground v.1.15,2013-01-24 17:55:00,
2013-01-24 12:00:00,11.1,1.9,30.67,NW,321,3.0,4.0,66,0.00,,,0.00,343,Wunderground v.1.15,2013-01-24 18:00:00,
2013-01-24 12:06:00,11.4,2.2,30.67,NW,321,2.0,4.0,66,0.00,,,0.00,313,Wunderground v.1.15,2013-01-24 18:06:00,
2013-01-24 12:14:00,12.0,2.5,30.67,NNE,19,2.0,3.0,65,0.00,,,0.00,327,Wunderground v.1.15,2013-01-24 18:14:00,
2013-01-24 12:19:00,12.0,2.5,30.66,WNW,292,2.0,3.0,65,0.00,,,0.00,309,Wunderground v.1.15,2013-01-24 18:19:00,
2013-01-24 12:25:00,12.2,3.0,30.66,WNW,292,2.0,2.0,66,0.00,,,0.00,320,Wunderground v.1.15,2013-01-24 18:25:00,
2013-01-24 12:30:00,12.3,2.8,30.65,WNW,292,2.0,2.0,65,0.00,,,0.00,339,Wunderground v.1.15,2013-01-24 18:30:00,
2013-01-24 12:36:00,12.5,3.3,30.65,WNW,292,1.0,3.0,66,0.00,,,0.00,332,Wunderground v.1.15,2013-01-24 18:36:00,
2013-01-24 12:45:00,13.1,3.5,30.65,WNW,292,1.0,2.0,65,0.00,,,0.00,316,Wunderground v.1.15,2013-01-24 18:45:00,
2013-01-24 12:50:00,13.3,3.4,30.65,NW,315,2.0,4.0,64,0.00,,,0.00,292,Wunderground v.1.15,2013-01-24 18:50:00,
2013-01-24 12:56:00,13.4,3.1,30.65,NW,315,3.0,4.0,63,0.00,,,0.00,301,Wunderground v.1.15,2013-01-24 18:56:00,
2013-01-24 13:04:00,13.7,3.4,30.64,NW,319,1.0,2.0,63,0.00,,,0.00,320,Wunderground v.1.15,2013-01-24 19:04:00,
2013-01-24 13:10:00,13.8,2.8,30.64,NW,319,1.0,2.0,61,0.00,,,0.00,288,Wunderground v.1.15,2013-01-24 19:10:00,
2013-01-24 13:15:00,13.9,2.9,30.63,NW,319,2.0,2.0,61,0.00,,,0.00,272,Wunderground v.1.15,2013-01-24 19:15:00,
2013-01-24 13:21:00,14.1,3.1,30.63,NW,319,2.0,3.0,61,0.00,,,0.00,271,Wunderground v.1.15,2013-01-24 19:21:00,
2013-01-24 13:26:00,14.3,3.3,30.63,NW,319,2.0,3.0,61,0.00,,,0.00,285,Wunderground v.1.15,2013-01-24 19:26:00,
2013-01-24 13:34:00,14.5,3.1,30.63,NW,319,2.0,3.0,60,0.00,,,0.00,308,Wunderground v.1.15,2013-01-24 19:34:00,
2013-01-24 13:39:00,14.8,3.8,30.63,NW,319,2.0,3.0,61,0.00,,,0.00,265,Wunderground v.1.15,2013-01-24 19:39:00,
2013-01-24 13:44:00,15.0,3.2,30.63,NW,319,1.0,2.0,59,0.00,,,0.00,339,Wunderground v.1.15,2013-01-24 19:44:00,
2013-01-24 13:49:00,15.3,3.5,30.62,NW,319,1.0,2.0,59,0.00,,,0.00,279,Wunderground v.1.15,2013-01-24 19:49:00,
2013-01-24 13:55:00,15.5,3.0,30.62,NW,319,0.0,1.0,57,0.00,,,0.00,278,Wunderground v.1.15,2013-01-24 19:55:00,
2013-01-24 14:01:00,15.5,3.0,30.62,NW,319,1.0,1.0,57,0.00,,,0.00,251,Wunderground v.1.15,2013-01-24 20:01:00,
2013-01-24 14:06:00,15.8,4.0,30.62,NW,319,2.0,2.0,59,0.00,,,0.00,269,Wunderground v.1.15,2013-01-24 20:06:00,
2013-01-24 14:14:00,15.9,3.0,30.62,NW,319,1.0,1.0,56,0.00,,,0.00,257,Wunderground v.1.15,2013-01-24 20:14:00,
2013-01-24 14:20:00,15.9,3.3,30.62,NW,319,1.0,3.0,57,0.00,,,0.00,221,Wunderground v.1.15,2013-01-24 20:20:00,
2013-01-24 14:25:00,16.0,1.9,30.62,NW,319,1.0,3.0,53,0.00,,,0.00,218,Wunderground v.1.15,2013-01-24 20:25:00,
2013-01-24 14:31:00,16.2,2.0,30.62,NW,319,1.0,1.0,53,0.00,,,0.00,197,Wunderground v.1.15,2013-01-24 20:31:00,
2013-01-24 14:36:00,16.4,1.8,30.62,NW,319,1.0,2.0,52,0.00,,,0.00,188,Wunderground v.1.15,2013-01-24 20:36:00,
2013-01-24 14:45:00,16.3,1.3,30.62,NW,319,1.0,1.0,51,0.00,,,0.00,162,Wunderground v.1.15,2013-01-24 20:45:00,
2013-01-24 14:50:00,16.4,2.2,30.61,NW,319,1.0,2.0,53,0.00,,,0.00,153,Wunderground v.1.15,2013-01-24 20:50:00,
2013-01-24 14:56:00,16.5,1.9,30.61,NW,319,1.0,2.0,52,0.00,,,0.00,146,Wunderground v.1.15,2013-01-24 20:56:00,
2013-01-24 15:01:00,16.5,1.9,30.61,NW,319,1.0,2.0,52,0.00,,,0.00,130,Wunderground v.1.15,2013-01-24 21:01:00,
2013-01-24 15:09:00,16.8,2.2,30.61,North,355,1.0,2.0,52,0.00,,,0.00,116,Wunderground v.1.15,2013-01-24 21:09:00,
2013-01-24 15:15:00,16.8,2.2,30.60,North,355,1.0,3.0,52,0.00,,,0.00,102,Wunderground v.1.15,2013-01-24 21:15:00,
2013-01-24 15:20:00,16.8,2.6,30.60,North,355,2.0,2.0,53,0.00,,,0.00,90,Wunderground v.1.15,2013-01-24 21:20:00,
2013-01-24 15:25:00,16.7,2.1,30.60,North,355,2.0,2.0,52,0.00,,,0.00,83,Wunderground v.1.15,2013-01-24 21:25:00,
2013-01-24 15:31:00,16.7,2.1,30.60,North,355,2.0,2.0,52,0.00,,,0.00,69,Wunderground v.1.15,2013-01-24 21:31:00,
2013-01-24 15:36:00,16.8,2.6,30.60,North,355,2.0,3.0,53,0.00,,,0.00,62,Wunderground v.1.15,2013-01-24 21:36:00,
2013-01-24 15:44:00,16.9,2.3,30.60,North,355,2.0,2.0,52,0.00,,,0.00,49,Wunderground v.1.15,2013-01-24 21:44:00,
2013-01-24 15:50:00,16.9,1.4,30.60,North,355,1.0,1.0,50,0.00,,,0.00,42,Wunderground v.1.15,2013-01-24 21:50:00,
2013-01-24 15:56:00,16.8,1.3,30.60,North,355,0.0,1.0,50,0.00,,,0.00,35,Wunderground v.1.15,2013-01-24 21:56:00,
2013-01-24 16:02:00,16.9,1.4,30.59,North,355,0.0,0.0,50,0.00,,,0.00,30,Wunderground v.1.15,2013-01-24 22:02:00,
2013-01-24 16:09:00,16.9,1.9,30.59,North,355,0.0,1.0,51,0.00,,,0.00,25,Wunderground v.1.15,2013-01-24 22:09:00,
2013-01-24 16:15:00,16.9,1.4,30.59,North,355,1.0,2.0,50,0.00,,,0.00,21,Wunderground v.1.15,2013-01-24 22:15:00,
2013-01-24 16:21:00,16.9,1.4,30.59,North,355,1.0,1.0,50,0.00,,,0.00,18,Wunderground v.1.15,2013-01-24 22:21:00,
2013-01-24 16:27:00,16.9,1.9,30.59,North,355,0.0,1.0,51,0.00,,,0.00,12,Wunderground v.1.15,2013-01-24 22:27:00,
2013-01-24 16:34:00,17.0,2.4,30.59,North,355,0.0,1.0,52,0.00,,,0.00,7,Wunderground v.1.15,2013-01-24 22:34:00,
2013-01-24 16:40:00,17.2,3.0,30.59,North,355,0.0,0.0,53,0.00,,,0.00,5,Wunderground v.1.15,2013-01-24 22:40:00,
2013-01-24 16:45:00,17.1,3.3,30.58,North,355,0.0,0.0,54,0.00,,,0.00,0,Wunderground v.1.15,2013-01-24 22:45:00,
2013-01-24 16:51:00,17.1,2.9,30.58,North,355,0.0,1.0,53,0.00,,,0.00,0,Wunderground v.1.15,2013-01-24 22:51:00,
2013-01-24 17:00:00,17.0,2.4,30.58,North,355,0.0,1.0,52,0.00,,,0.00,0,Wunderground v.1.15,2013-01-24 23:00:00,
2013-01-24 17:05:00,17.1,2.9,30.58,North,355,1.0,2.0,53,0.00,,,0.00,0,Wunderground v.1.15,2013-01-24 23:05:00,
2013-01-24 17:11:00,17.0,2.4,30.58,SSW,200,1.0,1.0,52,0.00,,,0.00,0,Wunderground v.1.15,2013-01-24 23:11:00,
2013-01-24 17:19:00,17.0,3.2,30.58,SSW,200,0.0,0.0,54,0.00,,,0.00,0,Wunderground v.1.15,2013-01-24 23:19:00,
2013-01-24 17:25:00,17.0,2.8,30.58,SSW,200,0.0,0.0,53,0.00,,,0.00,0,Wunderground v.1.15,2013-01-24 23:25:00,
2013-01-24 17:30:00,17.0,3.2,30.58,SSW,200,0.0,0.0,54,0.00,,,0.00,0,Wunderground v.1.15,2013-01-24 23:30:00,
2013-01-24 17:36:00,17.0,3.6,30.58,SSW,200,0.0,0.0,55,0.00,,,0.00,0,Wunderground v.1.15,2013-01-24 23:36:00,
2013-01-24 17:44:00,17.1,4.1,30.58,SSW,200,0.0,0.0,56,0.00,,,0.00,0,Wunderground v.1.15,2013-01-24 23:44:00,
2013-01-24 17:50:00,17.0,4.4,30.57,SSW,200,0.0,0.0,57,0.00,,,0.00,0,Wunderground v.1.15,2013-01-24 23:50:00,
2013-01-24 17:56:00,17.1,4.5,30.57,SSW,200,0.0,0.0,57,0.00,,,0.00,0,Wunderground v.1.15,2013-01-24 23:56:00,
2013-01-24 18:01:00,17.0,4.4,30.57,SSW,200,0.0,0.0,57,0.00,,,0.00,0,Wunderground v.1.15,2013-01-25 00:01:00,
2013-01-24 18:06:00,17.1,4.1,30.57,SSW,200,0.0,0.0,56,0.00,,,0.00,0,Wunderground v.1.15,2013-01-25 00:06:00,
2013-01-24 18:14:00,17.2,5.3,30.57,SSW,200,0.0,0.0,59,0.00,,,0.00,0,Wunderground v.1.15,2013-01-25 00:14:00,
2013-01-24 18:19:00,17.2,4.9,30.56,SSW,200,0.0,1.0,58,0.00,,,0.00,0,Wunderground v.1.15,2013-01-25 00:19:00,
2013-01-24 18:25:00,17.1,4.5,30.56,SSW,200,0.0,1.0,57,0.00,,,0.00,0,Wunderground v.1.15,2013-01-25 00:25:00,
2013-01-24 18:31:00,17.1,5.2,30.55,SSW,200,0.0,0.0,59,0.00,,,0.00,0,Wunderground v.1.15,2013-01-25 00:31:00,
2013-01-24 18:40:00,17.1,5.6,30.55,SSW,200,0.0,0.0,60,0.00,,,0.00,0,Wunderground v.1.15,2013-01-25 00:40:00,
2013-01-24 18:45:00,17.1,5.9,30.54,ESE,123,0.0,0.0,61,0.00,,,0.00,0,Wunderground v.1.15,2013-01-25 00:45:00,
2013-01-24 18:51:00,17.1,6.3,30.54,ESE,123,1.0,4.0,62,0.00,,,0.00,0,Wunderground v.1.15,2013-01-25 00:51:00,
2013-01-24 18:56:00,17.1,6.3,30.54,SE,129,1.0,4.0,62,0.00,,,0.00,0,Wunderground v.1.15,2013-01-25 00:56:00,
2013-01-24 19:04:00,17.1,6.7,30.53,SE,141,1.0,1.0,63,0.00,,,0.00,0,Wunderground v.1.15,2013-01-25 01:04:00,
2013-01-24 19:10:00,17.1,7.0,30.53,SE,133,1.0,1.0,64,0.00,,,0.00,0,Wunderground v.1.15,2013-01-25 01:10:00,
2013-01-24 19:16:00,17.1,7.0,30.52,ESE,113,1.0,3.0,64,0.00,,,0.00,0,Wunderground v.1.15,2013-01-25 01:16:00,
2013-01-24 19:21:00,17.1,7.3,30.52,SE,140,1.0,2.0,65,0.00,,,0.00,0,Wunderground v.1.15,2013-01-25 01:21:00,
2013-01-24 19:27:00,17.1,7.3,30.52,SE,124,1.0,2.0,65,0.00,,,0.00,0,Wunderground v.1.15,2013-01-25 01:27:00,
2013-01-24 19:34:00,17.1,7.7,30.51,ESE,123,1.0,2.0,66,0.00,,,0.00,0,Wunderground v.1.15,2013-01-25 01:34:00,
2013-01-24 19:40:00,17.1,7.7,30.51,ESE,103,1.0,3.0,66,0.00,,,0.00,0,Wunderground v.1.15,2013-01-25 01:40:00,
2013-01-24 19:45:00,17.1,8.0,30.50,ESE,119,2.0,5.0,67,0.00,,,0.00,0,Wunderground v.1.15,2013-01-25 01:45:00,
2013-01-24 19:50:00,17.2,8.4,30.50,ESE,119,2.0,2.0,68,0.00,,,0.00,0,Wunderground v.1.15,2013-01-25 01:50:00,
2013-01-24 19:56:00,17.2,8.8,30.50,ESE,119,1.0,2.0,69,0.00,,,0.00,0,Wunderground v.1.15,2013-01-25 01:56:00,
2013-01-24 20:04:00,17.3,8.9,30.51,ESE,114,1.0,1.0,69,0.00,,,0.00,0,Wunderground v.1.15,2013-01-25 02:04:00,
2013-01-24 20:10:00,17.3,8.9,30.51,SSE,163,1.0,1.0,69,0.00,,,0.00,0,Wunderground v.1.15,2013-01-25 02:10:00,
2013-01-24 20:16:00,17.3,9.2,30.49,ESE,111,1.0,2.0,70,0.00,,,0.00,0,Wunderground v.1.15,2013-01-25 02:16:00,
2013-01-24 20:21:00,17.3,9.2,30.49,ESE,111,0.0,1.0,70,0.00,,,0.00,0,Wunderground v.1.15,2013-01-25 02:21:00,
2013-01-24 20:29:00,17.3,9.2,30.49,ESE,111,0.0,1.0,70,0.00,,,0.00,0,Wunderground v.1.15,2013-01-25 02:29:00,
2013-01-24 20:34:00,17.4,9.3,30.49,SSE,166,0.0,1.0,70,0.00,,,0.00,0,Wunderground v.1.15,2013-01-25 02:34:00,
2013-01-24 20:40:00,17.4,9.3,30.49,SE,136,1.0,1.0,70,0.00,,,0.00,0,Wunderground v.1.15,2013-01-25 02:40:00,
2013-01-24 20:45:00,17.4,9.3,30.51,ESE,119,1.0,1.0,70,0.00,,,0.00,0,Wunderground v.1.15,2013-01-25 02:45:00,
2013-01-24 20:51:00,17.5,9.4,30.51,ESE,119,1.0,1.0,70,0.00,,,0.00,0,Wunderground v.1.15,2013-01-25 02:51:00,
2013-01-24 20:56:00,17.5,9.4,30.51,ESE,119,0.0,1.0,70,0.00,,,0.00,0,Wunderground v.1.15,2013-01-25 02:56:00,
2013-01-24 21:02:00,17.6,9.5,30.51,SE,126,0.0,3.0,70,0.00,,,0.00,0,Wunderground v.1.15,2013-01-25 03:02:00,
2013-01-24 21:09:00,17.6,9.5,30.51,SE,126,1.0,3.0,70,0.00,,,0.00,0,Wunderground v.1.15,2013-01-25 03:09:00,
2013-01-24 21:14:00,17.6,9.5,30.51,SE,126,1.0,2.0,70,0.00,,,0.00,0,Wunderground v.1.15,2013-01-25 03:14:00,
2013-01-24 21:20:00,17.6,9.8,30.49,SE,126,1.0,1.0,71,0.00,,,0.00,0,Wunderground v.1.15,2013-01-25 03:20:00,
2013-01-24 21:27:00,17.7,9.6,30.49,SE,126,1.0,1.0,70,0.00,,,0.00,0,Wunderground v.1.15,2013-01-25 03:27:00,
2013-01-24 21:35:00,17.7,9.6,30.49,ESE,116,1.0,1.0,70,0.00,,,0.00,0,Wunderground v.1.15,2013-01-25 03:35:00,
2013-01-24 21:40:00,17.6,9.5,30.49,ESE,123,1.0,1.0,70,0.00,,,0.00,0,Wunderground v.1.15,2013-01-25 03:40:00,
2013-01-24 21:46:00,17.7,9.6,30.46,SE,126,1.0,2.0,70,0.00,,,0.00,0,Wunderground v.1.15,2013-01-25 03:46:00,
2013-01-24 21:51:00,17.7,9.6,30.46,ESE,118,1.0,4.0,70,0.00,,,0.00,0,Wunderground v.1.15,2013-01-25 03:51:00,
2013-01-24 21:57:00,17.7,9.2,30.46,ESE,113,2.0,4.0,69,0.00,,,0.00,0,Wunderground v.1.15,2013-01-25 03:57:00,
2013-01-24 22:05:00,17.8,9.3,30.44,East,94,2.0,3.0,69,0.00,,,0.00,0,Wunderground v.1.15,2013-01-25 04:05:00,
2013-01-24 22:10:00,17.8,9.0,30.44,SE,128,2.0,2.0,68,0.00,,,0.00,0,Wunderground v.1.15,2013-01-25 04:10:00,
2013-01-24 22:15:00,17.9,9.1,30.45,ESE,115,1.0,4.0,68,0.00,,,0.00,0,Wunderground v.1.15,2013-01-25 04:15:00,
2013-01-24 22:21:00,18.1,8.6,30.45,SE,134,1.0,1.0,66,0.00,,,0.00,0,Wunderground v.1.15,2013-01-25 04:21:00,
2013-01-24 22:26:00,18.1,8.0,30.45,ESE,111,2.0,6.0,64,0.00,,,0.00,0,Wunderground v.1.15,2013-01-25 04:26:00,
2013-01-24 22:34:00,18.3,7.8,30.45,South,175,2.0,2.0,63,0.00,,,0.00,0,Wunderground v.1.15,2013-01-25 04:34:00,
2013-01-24 22:40:00,18.3,7.4,30.45,ESE,114,2.0,3.0,62,0.00,,,0.00,0,Wunderground v.1.15,2013-01-25 04:40:00,
2013-01-24 22:46:00,18.4,6.8,30.45,South,169,2.0,3.0,60,0.00,,,0.00,0,Wunderground v.1.15,2013-01-25 04:46:00,
2013-01-24 22:52:00,18.5,6.9,30.45,ESE,121,2.0,4.0,60,0.00,,,0.00,0,Wunderground v.1.15,2013-01-25 04:52:00,
2013-01-24 22:58:00,18.5,6.5,30.45,SE,126,1.0,4.0,59,0.00,,,0.00,0,Wunderground v.1.15,2013-01-25 04:58:00,
2013-01-24 23:04:00,18.6,6.3,30.44,SSE,157,2.0,3.0,58,0.00,,,0.00,0,Wunderground v.1.15,2013-01-25 05:04:00,
2013-01-24 23:05:00,18.6,5.9,30.44,SE,140,3.0,3.0,57,0.00,,,0.00,0,Wunderground v.1.15,2013-01-25 05:05:00,
2013-01-24 23:06:00,18.6,5.9,30.44,SSE,155,3.0,3.0,57,0.00,,,0.00,0,Wunderground v.1.15,2013-01-25 05:06:00,
2013-01-24 23:09:00,18.6,6.3,30.44,SE,141,2.0,5.0,58,0.00,,,0.00,0,Wunderground v.1.15,2013-01-25 05:09:00,
2013-01-24 23:14:00,18.6,5.9,30.44,SE,128,2.0,7.0,57,0.00,,,0.00,0,Wunderground v.1.15,2013-01-25 05:14:00,
2013-01-24 23:20:00,18.6,5.5,30.44,ESE,114,2.0,7.0,56,0.00,,,0.00,0,Wunderground v.1.15,2013-01-25 05:20:00,
2013-01-24 23:26:00,18.7,5.2,30.44,SE,145,1.0,7.0,55,0.00,,,0.00,0,Wunderground v.1.15,2013-01-25 05:26:00,
2013-01-24 23:32:00,18.7,5.6,30.44,SE,124,2.0,2.0,56,0.00,,,0.00,0,Wunderground v.1.15,2013-01-25 05:32:00,
2013-01-24 23:39:00,18.7,5.2,30.44,SSE,150,2.0,3.0,55,0.00,,,0.00,0,Wunderground v.1.15,2013-01-25 05:39:00,
2013-01-24 23:45:00,18.7,5.2,30.44,SSE,158,2.0,2.0,55,0.00,,,0.00,0,Wunderground v.1.15,2013-01-25 05:45:00,
2013-01-24 23:51:00,18.7,4.8,30.44,East,93,2.0,2.0,54,0.00,,,0.00,0,Wunderground v.1.15,2013-01-25 05:51:00,
2013-01-24 23:56:00,18.7,5.2,30.44,SE,140,2.0,5.0,55,0.00,,,0.00,0,Wunderground v.1.15,2013-01-25 05:56:00,